Вернуться в каталог

STARLINK-5928

АктивенСвязьVLEO
NORAD 55958·PAYLOAD·🇺🇸 United States

Запущен Mar 17, 2023 с Vandenberg Space Force Base

Loading…

Ближайшие Пролёты (ближайшие 24 часа)

TLE

СвежийSource: CelesTrak SupGP

Эпоха: Sep 15, 2026, 02:27 UTC

1 55958C 23037AW  26258.10256944  .00026832  00000+0  22488-2 0  2585
2 55958  70.0001 146.8898 0002753 270.7623 141.6166 14.98315533    18

Отслеживайте STARLINK-5928 в реальном времени с AllMySat

Download on the App Store